User: anonymous   Login
Location: Unspecified
(0.0000°N, 0.0000°E)
Time: 07:23:51
(UTC+00:00)
Language:

CP4 - Orbit

View from above orbital plane
View from above orbital plane
View from above satellite
View from above satellite

Ground track
Ground track

The orbit data is extracted from the following two-line orbital elements,

1 31132U 07012Q   23333.84387294  .00004330  00000-0  84586-3 0  9993
2 31132  98.3198 285.9973 0077530 352.3965   7.6054 14.61535151884181
Epoch (UTC): 29 November 2023 20:15:10
Eccentricity: 0.0077530
inclination: 98.3198°
perigee height: 633 km
apogee height: 743 km
right ascension of ascending node: 285.9973°
argument of perigee: 352.3965°
revolutions per day: 14.61535151
mean anomaly at epoch: 7.6054°
orbit number at epoch: 88418

The dashed part of the orbit path shows where the satellite is in the earth's shadow,  

DLR